Location: Bottom School (historical)
(37.9078°N, 89.3593°W)
Time: 14:03:27
(UTC+00:00)

Cosmos 1812 - Pass Details

Date: 08 December 2021
Orbit: 513 x 520 km, 82.5° (Epoch: 19 January)

Event Time Altitude Azimuth Distance (km) Brightness Sun altitude
Rises 23:46:21 0° 204° (SSW) 2,633 7.0 -13.2°
Reaches altitude 10° 23:48:36 10° 213° (SSW) 1,751 6.2 -13.6°
Maximum altitude 23:52:10 36° 281° (W) 836 4.3 -14.3°
Drops below altitude 10° 23:55:46 10° 349° (N) 1,764 5.3 -14.9°
Sets 23:58:02 0° 358° (N) 2,657 6.2 -15.4°
